Regional Weather Roundup
Issued by NWS

Home | Current Version | Previous Version | Text Only | Print | Product List | Glossary Off
Versions: 1 2 3 4 5 6 7 8 9 10 11 12 13 14 15 16 17 18 19 20 21 22 23 24 25 26 27 28 29 30 31 32 33 34 35 36 37 38 39 40 41 42 43 44 45 46 47 48 49 50

000
ASUS43 KMKX 020800
RWRWI

WISCONSIN REGIONAL WEATHER ROUNDUP
NATIONAL WEATHER SERVICE MILWAUKEE/SULLIVAN WI
200 AM CST MON MAR 02 2015

NOTE: "FAIR" INDICATES FEW OR NO CLOUDS BELOW 12,000 FEET WITH NO
SIGNIFICANT WEATHER AND/OR OBSTRUCTIONS TO VISIBILITY.

WIZ001-002-006>008-014>016-023>028-020900-
NORTHWEST WISCONSIN

CITY           SKY/WX    TMP DP  RH WIND       PRES   REMARKS
SUPERIOR ARPT  CLEAR     12   5  73 SW6       30.39R WCI   3
ASHLAND        CLEAR     15   5  64 W8        30.35R WCI   4
HAYWARD        CLEAR     11   4  73 CALM      30.34R
SIREN          CLEAR     11   5  77 NW5       30.39R WCI   2
CUMBERLAND     CLEAR     12   5  73 NW12      30.36R WCI  -2
RICE LAKE      PTCLDY    15   7  71 W10       30.38R WCI   2
CHETEK         CLEAR     14   7  73 W5        30.37R WCI   6
LADYSMITH      MOCLDY    16   9  72 W12       30.33R WCI   3
EAU CLAIRE     NOT AVBL
MENOMONIE      CLEAR     18  10  70 W7        30.40R WCI   8
NEW RICHMOND   CLEAR     14   7  75 NW9       30.41R WCI   1
OSCEOLA        CLEAR     15   8  75 W7        30.45R WCI   5
$$

WIZ003>005-009-010-017-018-020900-
NORTH CENTRAL WISCONSIN

CITY           SKY/WX    TMP DP  RH WIND       PRES   REMARKS
MANITOWISH WTR CLOUDY    14   4  66 NW14      30.23R WCI  -1
ARBOR VITAE    CLOUDY    17   6  63 NW12G26   30.23R WCI   4
WOODRUFF       CLOUDY    17   6  63 NW12G26   30.23R WCI   4
RHINELANDER    FLURRIES  16   8  71 NW8G21    30.23R WCI   5
EAGLE RIVER    MOCLDY    16   5  63 NW10G21   30.20R WCI   4
LAND O LAKES   MOCLDY    16   8  71 NW10G16   30.21R WCI   3
PHILLIPS       MOCLDY    15   9  77 NW6       30.26R WCI   6
TOMAHAWK       CLOUDY    14   8  77 CALM      30.25R
MEDFORD        CLEAR     12   6  76 W7        30.28R WCI   2
MERRILL        CLEAR     13   6  76 W5        30.27R WCI   5
$$

WIZ029-030-035-036-043>047-020900-
CENTRAL WISCONSIN

CITY           SKY/WX    TMP DP  RH WIND       PRES   REMARKS
WAUSAU         CLEAR     12   5  73 W8        30.28R WCI   0
MOSINEE        CLEAR     14   9  79 W9        30.29R WCI   2
MARSHFIELD     CLEAR     15   7  70 NW15      30.31R WCI   0
STEVENS POINT  CLEAR     15   7  71 W7        30.31R WCI   5
WAUPACA        CLEAR     18   9  66 W6        30.33R WCI  10
WAUTOMA        NOT AVBL
WISC RAPIDS    CLEAR     14   6  70 W8        30.35R WCI   3
CAMP DOUGLAS   NOT AVBL
$$

WIZ011>013-019>022-031-037>040-048>050-020900-
NORTHEAST WISCONSIN

CITY           SKY/WX    TMP DP  RH WIND       PRES   REMARKS
ANTIGO         CLEAR     11   5  76 W12       30.23R WCI  -3
SHAWANO        CLEAR     19   8  62 W6        30.29R WCI  11
OCONTO         CLEAR     15   6  67 W9        30.28R WCI   3
STURGEON BAY   CLEAR     16   5  62 W10       30.29R WCI   3
GREEN BAY      CLEAR     16   8  71 W10       30.31R WCI   4
MANITOWOC      NOT AVBL
APPLETON       CLEAR     14   5  67 SW8       30.31R WCI   3
CLINTONVILLE   CLEAR     14   7  73 W7        30.30R WCI   4
OSHKOSH        CLEAR     15   6  67 W6        30.33R WCI   6
$$

WIZ032>034-041-042-053>061-020900-
SOUTHWEST WISCONSIN

CITY           SKY/WX    TMP DP  RH WIND       PRES   REMARKS
LA CROSSE      CLOUDY    12   8  84 SE3       30.42R
SPARTA         PTCLDY     4   1  86 CALM      30.39R
VIROQUA        CLEAR     14  10  86 W8        30.36R WCI   2
BOSCOBEL       CLEAR     14   8  77 SW6       30.43R WCI   5
PRAIRIE DU CHI CLEAR     16   9  74 W7        30.43R WCI   7
PLATTEVILLE    CLEAR     12   8  85 SW8       30.40R WCI   0
$$

WIZ056-057-062-063-064-067-068-020900-
SOUTH CENTRAL WISCONSIN

CITY           SKY/WX    TMP DP  RH WIND       PRES   REMARKS
REEDSBURG      CLEAR     16  10  75 W3        30.36R
BARABOO/DELLS  CLEAR     16   9  72 W8        30.35R WCI   5
LONE ROCK      NOT AVBL
MINERAL POINT  CLEAR     14   9  79 W8        30.37R WCI   3
MADISON        CLEAR     16   7  67 CALM      30.37R
MIDDLETON      CLEAR     16   7  69 W3        30.37R
WATERTOWN      CLEAR     12   6  76 SW3       30.36R
MONROE         CLEAR     16  10  79 W16       30.36R WCI   0
JANESVILLE     CLEAR     16   9  73 W7        30.39R WCI   6
$$

WIZ051-052-058>065-066-070>072-020900-
SOUTHEAST WISCONSIN

CITY           SKY/WX    TMP DP  RH WIND       PRES   REMARKS
MILWAUKEE      CLEAR     18   6  59 W7        30.36R WCI   9
WAUKESHA       FAIR      14   7  73 SW7       30.36R WCI   4
MILWAUKEE/TIMM CLEAR     18   7  62 W9        30.36R WCI   6
RACINE         CLEAR     17   6  62 W6        30.39R WCI   9
BURLINGTON     CLEAR     12   5  73 W6        30.38R WCI   3
KENOSHA        CLEAR     14   6  70 W10       30.37R WCI   1
FOND DU LAC    CLEAR     14   5  67 SW8       30.34R WCI   3
SHEBOYGAN      CLEAR     17   7  64 W9        30.32R WCI   6
WEST BEND      CLEAR     18   7  62 W10       30.33R WCI   6
JUNEAU         CLEAR     10   4  77 SW7       30.36R WCI  -1
$$

LSZ147-162-020900-
LAKE SUPERIOR

STATION/POSITION TIME  TEMP    WIND        PRES    WAVE
                       AIR SEA DIR/SP/G            HT/PER
                 (UTC) (F)     (DEG/KT/KT) (MB)    (FT/S)
DEVILS ISLAND    0700   19     290/ 20/ 23 1027.6R
PORT WING        0740   18     290/ 13/ 19 1028.1R
SAXON HARBOR     0740   19     280/  9/ 24 1027.4R
$$

LMZ867-665-643>646-020900-
LAKE MICHIGAN

STATION/POSITION TIME  TEMP    WIND        PRES    WAVE
                       AIR SEA DIR/SP/G            HT/PER
                 (UTC) (F)     (DEG/KT/KT) (MB)    (FT/S)
NORTHPORT PIER   0704   18     270/  7/ 18 1023.4R
SISTER BAY       0613   15     290/  9/ 10   N/A
KEWAUNEE LAKESHO 0700   18     290/  7/ 10 1023.8
SHEBOYGAN LAKESH 0700   20     270/ 10/ 13 1027.8R
PORT WASHINGTON  0740   19     260/  6/  9 1028.1R
MILWAUKEE LAKESH 0700   21     280/ 12/ 15   N/A
KENOSHA   LAKESH 0700   18     270/ 10/ 14 1028.1R
$$

TC  - TEMPERATURE IN CELSIUS
VSB - VISIBILITY IN STATUTE MILES
WCI - WIND CHILL INDEX
HX  - HEAT INDEX



USA.gov is the U.S. government's official web portal to all federal, state and local government web resources and services.